Regional Weather Roundup
Issued by NWS Sioux Falls, SD

Home | Current Version | Previous Version | Text Only | Print | Product List | Glossary On
Versions: 1 2 3 4 5 6 7 8 9 10 11 12 13 14 15 16 17 18 19 20 21 22 23 24 25 26 27 28 29 30 31 32 33 34 35 36 37 38 39 40 41 42 43 44 45 46 47 48 49 50
000
ASUS43 KFSD 301010
RWRFSD

WEATHER ROUNDUP FOR SE SOUTH DAKOTA/SW MINNESOTA/NW IOWA
NATIONAL WEATHER SERVICE SIOUX FALLS SD
500 AM CDT SAT AUG 30 2014

NOTE: "FAIR" INDICATES FEW OR NO CLOUDS BELOW 12,000 FEET WITH NO
SIGNIFICANT WEATHER AND OR OBSTRUCTIONS TO VISIBILITY.


SDZ038>040-050-052>070-301100-
SOUTHEAST SOUTH DAKOTA

CITY           SKY/WX    TMP DP  RH WIND       PRES   REMARKS
CHAMBERLAIN    CLEAR     56  55  95 W3        29.97R
HURON          CLOUDY    61  57  87 NW12      29.92S
MADISON        CLOUDY    63  63 100 NW8       29.90S
MITCHELL       CLOUDY    61  60  97 NW8       29.93S
SIOUX FALLS    CLOUDY    65  63  93 NW10      29.89R
WINNER         FOG       55  54  96 W6        29.99R VSB 1/2
YANKTON        CLOUDY    63  61  94 NW14      29.91S
$$

MNZ071-072-080-081-089-090-097-098-301100-
SOUTHWEST MINNESOTA

CITY           SKY/WX    TMP DP  RH WIND       PRES   REMARKS
FAIRMONT       CLOUDY    63  57  82 NW9       29.82R
JACKSON        MOCLDY    64  63  94 NW6       29.85R
LUVERNE        MOCLDY    64  63  94 N5        29.87S
MARSHALL       CLOUDY    63  59  88 NW12      29.85S
MONTEVIDEO     CLOUDY    63  63 100 N8        29.86S FOG
PIPESTONE      CLOUDY    64  63  94 N6        29.88R
REDWOOD FALLS  CLOUDY    66  65  96 NW8       29.82R FOG
TRACY          FOG       64  64  98 NW9       29.87R VSB 3/4
WINDOM         MOCLDY    64  64 100 NW9       29.85R
WORTHINGTON    CLOUDY    64  64 100 NW6       29.87S
$$

IAZ001>003-012>014-020>022-031-032-NEZ013-014-SDZ071-301100-
NORTHWEST IOWA

CITY           SKY/WX    TMP DP  RH WIND       PRES   REMARKS
CHEROKEE       PTCLDY    63  63 100 CALM      29.85S
DENISON        CLOUDY    66  66 100 W5        29.85R FOG
ESTHERVILLE    CLOUDY    66  65  96 NW7       29.83R
LE MARS          N/A     64  64 100 CALM      29.88R
ORANGE CITY    PTCLDY    64  63  94 NW6       29.87S FOG
SHELDON        FOG       64  64 100 NW6       29.86R VSB 3/4
SIOUX CITY     MOCLDY    66  64  93 NW12G18   29.87S
SPENCER        MOCLDY    64  62  93 NW7       29.85S
STORM LAKE     FOG       64  64 100 W10       29.86R VSB 1/4
$$

ABBREVIATIONS USED IN REMARKS
   TC - TEMPERATURE IN CELSIUS
  WCI - WIND CHILL INDEX
   HX - HEAT INDEX
  VSB - VISIBILITY



USA.gov is the U.S. government's official web portal to all federal, state and local government web resources and services.